This is the latest recevied weather packets stored in our database for station/object AF9W-5. If no packets are shown the sender has not sent any weather packets the latest 10 day(s).
| Time | Temp. | Humidity | Pressure | Rain* | Wind** | Luminosity | Snow |
|---|---|---|---|---|---|---|---|
| 1777772569 | 27.22° C | 21% | 1011.8 hPa | 0 mm | - | 19 W/m² | - |
| 1777772266 | 27.22° C | 21% | 1011.9 hPa | 0 mm | - | 23 W/m² | - |
| 1777771964 | 27.22° C | 21% | 1011.7 hPa | 0 mm | - | 26 W/m² | - |
| 1777771661 | 27.22° C | 20% | 1011.5 hPa | 0 mm | - | 35 W/m² | - |
| 1777771359 | 27.78° C | 20% | 1012 hPa | 0 mm | - | 44 W/m² | - |
| 1777771055 | 27.78° C | 19% | 1011.9 hPa | 0 mm | - | 51 W/m² | - |
| 1777770753 | 27.78° C | 19% | 1011.8 hPa | 0 mm | - | 57 W/m² | - |
| 1777770448 | 27.78° C | 19% | 1011.9 hPa | 0 mm | - | 63 W/m² | - |
| 1777770146 | 27.78° C | 19% | 1011.9 hPa | 0 mm | - | 68 W/m² | - |
| 1777769843 | 28.33° C | 19% | 1011.4 hPa | 0 mm | - | 70 W/m² | - |
| 1777769540 | 28.33° C | 19% | 1012 hPa | 0 mm | - | 71 W/m² | - |
| 1777769236 | 28.33° C | 19% | 1011.9 hPa | 0 mm | - | 70 W/m² | - |
| 1777768934 | 28.33° C | 19% | 1011.7 hPa | 0 mm | - | 83 W/m² | - |
| 1777768631 | 28.33° C | 19% | 1011.9 hPa | 0 mm | - | 91 W/m² | - |
| 1777768328 | 28.33° C | 19% | 1011.7 hPa | 0 mm | - | 98 W/m² | - |
| 1777768024 | 28.33° C | 19% | 1011.5 hPa | 0 mm | - | 99 W/m² | - |
| 1777767721 | 28.33° C | 19% | 1011.7 hPa | 0 mm | - | 101 W/m² | - |
| 1777767418 | 28.33° C | 19% | 1012 hPa | 0 mm | - | 123 W/m² | - |
| 1777767114 | 28.33° C | 20% | 1011.5 hPa | 0 mm | - | 107 W/m² | - |
| 1777766812 | 28.89° C | 19% | 1011.7 hPa | 0 mm | - | 91 W/m² | - |
| 1777766509 | 28.89° C | 19% | 1011.5 hPa | 0 mm | - | 123 W/m² | - |
| 1777766206 | 28.89° C | 20% | 1011.4 hPa | 0 mm | - | 138 W/m² | - |
| 1777765904 | 28.89° C | 20% | 1011.8 hPa | 0 mm | - | 161 W/m² | - |
| 1777765599 | 28.89° C | 20% | 1011.7 hPa | 0 mm | - | 189 W/m² | - |
| 1777765298 | 28.89° C | 20% | 1011.7 hPa | 0 mm | - | 156 W/m² | - |
* Rain latest hour (hover to see other rain measurements)
** Current wind speed in m/s (hover to see current wind gust speed)